Weather History for Hutchinson, KS

Change the Weather History Date:

Saturday, February 16, 2013

  Actual Average Record
Temperature  
Mean Temperature 32 °F -  
Max Temperature 52 °F 47 °F 70 °F (2011)
Min Temperature 12 °F 24 °F 3 °F (2007)
Degree Days  
Heating Degree Days 33    
Moisture  
Dew Point 17 °F    
Average Humidity 56    
Maximum Humidity 81    
Minimum Humidity 29    
Precipitation  
Precipitation 0.00 in - - ()
Sea Level Pressure  
Sea Level Pressure 30.19 in    
Wind  
Wind Speed 7 mph (South)    
Max Wind Speed 23 mph    
Max Gust Speed 26 mph    
Visibility 10 miles    
Events      
Averages and records for this station are not official NWS values.
T = Trace of Precipitation, MM = Missing Value Source: NWS Daily Summary

Daily Weather History Graph

Daily Weather History Graph

Search for Another Location

Airport:

Trip Planner

Search our weather history database for the weather conditions in past years. The results will help you decide how hot, cold, wet, or windy it might be!

Date:

Astronomy

Feb. 16, 2013 Rise Set
Actual Time 7:19 AM CST 6:11 PM CST
Civil Twilight 6:53 AM CST 6:38 PM CST
Nautical Twilight 6:22 AM CST 7:09 PM CST
Astronomical Twilight 5:51 AM CST 7:39 PM CST
Moon 10:40 AM CST (2/16) 12:06 AM CST (2/16)
Length of Visible Light 11h 45m
Length of Day
10h 51m
Waxing Crescent, 39% of the Moon is Illuminated
Feb 16
Waxing Crescent
Feb 17
First Quarter
Feb 25
Full
Mar 4
Last Quarter
Mar 11
New

Hourly Weather History & Observations

Time (CST) Temp. Windchill Dew Point Humidity Pressure Visibility Wind Dir Wind Speed Gust Speed Precip Events Conditions
12:52 AM 24.1 °F 14.4 °F 10.0 °F 55% 30.38 in 10.0 mi North 9.2 mph - N/A   Clear
1:52 AM 19.9 °F 13.4 °F 9.0 °F 62% 30.40 in 10.0 mi NW 4.6 mph - N/A   Clear
3:52 AM 14.0 °F - 8.1 °F 77% 30.38 in 10.0 mi Calm Calm - N/A   Clear
4:52 AM 18.0 °F 12.7 °F 9.0 °F 68% 30.37 in 10.0 mi West 3.5 mph - N/A   Clear
5:52 AM 12.0 °F - 5.0 °F 73% 30.37 in 10.0 mi Calm Calm - N/A   Clear
6:52 AM 15.1 °F - 9.0 °F 77% 30.35 in 10.0 mi Calm Calm - N/A   Clear
7:52 AM 17.1 °F - 10.0 °F 74% 30.32 in 10.0 mi Calm Calm - N/A   Clear
8:52 AM 23.0 °F 18.4 °F 12.9 °F 65% 30.31 in 10.0 mi South 3.5 mph - N/A   Clear
9:52 AM 30.0 °F 21.1 °F 12.9 °F 49% 30.29 in 10.0 mi SW 10.4 mph - N/A   Scattered Clouds
10:52 AM 36.0 °F 26.3 °F 10.9 °F 36% 30.25 in 10.0 mi SSW 16.1 mph 23.0 mph N/A   Overcast
11:52 AM 39.9 °F 29.7 °F 12.0 °F 32% 30.19 in 10.0 mi South 23.0 mph - N/A   Overcast
12:52 PM 42.1 °F 33.1 °F 14.0 °F 32% 30.15 in 10.0 mi South 20.7 mph - N/A   Mostly Cloudy
1:52 PM 46.0 °F 39.0 °F 15.1 °F 29% 30.12 in 10.0 mi SW 17.3 mph 26.5 mph N/A   Scattered Clouds
2:52 PM 46.9 °F - 21.9 °F 37% 30.08 in 10.0 mi SW 16.1 mph 25.3 mph N/A   Mostly Cloudy
3:52 PM 48.9 °F - 25.0 °F 39% 30.06 in 10.0 mi South 17.3 mph - N/A   Clear
4:52 PM 52.0 °F - 27.0 °F 38% 30.04 in 10.0 mi South 10.4 mph - N/A   Clear
5:52 PM 48.0 °F - 27.0 °F 44% 30.04 in 10.0 mi SSE 8.1 mph - N/A   Clear
6:52 PM 43.0 °F 38.2 °F 27.0 °F 53% 30.04 in 10.0 mi SE 8.1 mph - N/A   Clear
7:52 PM 39.9 °F 35.8 °F 27.0 °F 60% 30.04 in 10.0 mi SE 5.8 mph - N/A   Partly Cloudy
8:52 PM 35.1 °F 31.0 °F 25.0 °F 67% 30.03 in 10.0 mi SE 4.6 mph - N/A   Partly Cloudy
9:52 PM 32.0 °F 27.5 °F 25.0 °F 75% 30.03 in 10.0 mi East 4.6 mph - N/A   Clear
10:52 PM 32.0 °F - 24.1 °F 73% 30.02 in 10.0 mi Calm Calm - N/A   Clear
11:52 PM 28.0 °F - 23.0 °F 81% 30.01 in 10.0 mi Calm Calm - N/A   Clear